Skip Page Navigation
NASA JPL Caltech
NASA Logo - Jet Propulsion Laboratory + View the NASA Portal
+ Center for Near-Earth Object Studies
JPL Home Earth Solar System Stars & Galaxies Technology
JPL Solar System Dynamics
BODIES ORBITS EPHEMERIDES TOOLS PHYSICAL DATA DISCOVERY FAQ SITE MAP
JPL Small-Body Database Browser
Search: [ help ]  
541193 (2011 BA84)
Classification: Mars-crossing Asteroid          SPK-ID: 2541193
Ephemeris | Orbit Diagram | Orbital Elements | Mission Design | Physical Parameters | Discovery Circumstances | Close-Approach Data ]

[ hide orbit diagram ]

For accurate long-term ephemerides, please instead use our Horizons system.This orbit viewer was implemented using two-body methods, and hence should not be used for determining accurate long-term trajectories (over several years or decades) or planetary encounter circumstances.


Orbital Elements at Epoch 2459396.5 (2021-Jul-01.0) TDB
Reference: JPL 5 (heliocentric ecliptic J2000)
 Element Value Uncertainty (1-sigma)   Units 
e .2979217007861332 5.0534e-08  
a 2.320422073120419 1.6318e-08 au
q 1.629117982554699 1.156e-07 au
i 4.390640090013681 7.7001e-06 deg
node 83.09696172545267 0.00010234 deg
peri 125.0793168723956 0.00010431 deg
M 292.525326474811 2.3244e-05 deg
tp 2459638.484305761295
(2022-Feb-27.98430576)
8.5286e-05 TDB
period 1291.067381623501
3.53
1.3619e-05
3.729e-08
d
yr
n .2788390483131132 2.9414e-09 deg/d
Q 3.01172616368614 2.118e-08 au
  Orbit Determination Parameters
   # obs. used (total)      81  
   data-arc span      8681 days (23.77 yr)  
   first obs. used      1997-03-05  
   last obs. used      2020-12-10  
   planetary ephem.      DE441  
   SB-pert. ephem.      SB441-N16  
   condition code      0  
   norm. resid. RMS      .57382  
   source      ORB  
   producer      Otto Matic  
   solution date      2021-Apr-14 20:22:25  

Additional Information
 Earth MOID = .629762 au 
 Jupiter MOID = 1.95453 au 
 T_jup = 3.514 
[ show covariance matrix ]

Ephemeris | Orbit Diagram | Orbital Elements | Mission Design | Physical Parameters | Discovery Circumstances | Close-Approach Data ]

Physical Parameter Table
Parameter Symbol Value Units Sigma Reference Notes
absolute magnitude H 18.15   .32672 MPCxxxxx autocmod 2.8

541193 (2011 BA84)          Discovered 1997-Mar-05 by Spacewatch at Kitt Peak
Reference: Last Updated: 2019-12-13

[ show close-approach data ]
Alternate Designations
 2011 BA84 = 1997 EY24 = 2019 PS 
Ephemeris | Orbit Diagram | Orbital Elements | Mission Design | Physical Parameters | Discovery Circumstances | Close-Approach Data ]
ABOUT SSD CREDITS/AWARDS PRIVACY/COPYRIGHT GLOSSARY LINKS
FirstGov 2021-Jul-27 23:08 UT
(server date/time)  
NASA Home Page
Site Manager:   Ryan S. Park
Webmaster  Alan B. Chamberlin